| time (UTC) | temp F | wind direction | speed MPH | gust MPH | rain 1hr in | rain 24hr in | rain mn in | humidity % | barometer mb |
| 20260831150517 | 68 | 68 | 7.0 | 12.0 | 0.00 | 0.00 | 0.00 | 69 | 1018.8 |
| 20260831150017 | 69 | 68 | 6.0 | 11.0 | 0.00 | 0.00 | 0.00 | 69 | 1018.8 |
| 20260831145537 | 69 | 68 | 5.0 | 11.0 | 0.00 | 0.00 | 0.00 | 70 | 1018.8 |
| 20260831145017 | 69 | 68 | 7.0 | 13.0 | 0.00 | 0.00 | 0.00 | 69 | 1018.7 |
| 20260831144517 | 69 | 45 | 7.0 | 12.0 | 0.00 | 0.00 | 0.00 | 69 | 1018.8 |
| 20260831144017 | 69 | 45 | 8.0 | 13.0 | 0.00 | 0.00 | 0.00 | 69 | 1018.7 |
| 20260831143517 | 69 | 45 | 8.0 | 12.0 | 0.00 | 0.00 | 0.00 | 69 | 1018.7 |
| 20260831143017 | 69 | 45 | 7.0 | 12.0 | 0.00 | 0.00 | 0.00 | 69 | 1018.7 |
| 20260831142518 | 69 | 45 | 8.0 | 12.0 | 0.00 | 0.00 | 0.00 | 69 | 1018.7 |
| 20260831142017 | 69 | 45 | 8.0 | 12.0 | 0.00 | 0.00 | 0.00 | 70 | 1018.6 |
| 20260831141517 | 69 | 45 | 8.0 | 11.0 | 0.00 | 0.00 | 0.00 | 69 | 1018.6 |
| 20260831141017 | 69 | 45 | 7.0 | 11.0 | 0.00 | 0.00 | 0.00 | 70 | 1018.7 |
| 20260831140517 | 69 | 45 | 6.0 | 12.0 | 0.00 | 0.00 | 0.00 | 69 | 1018.6 |
| 20260831140016 | 69 | 45 | 5.0 | 12.0 | 0.00 | 0.00 | 0.00 | 70 | 1018.6 |
| 20260831135517 | 69 | 45 | 8.0 | 13.0 | 0.00 | 0.00 | 0.00 | 70 | 1018.7 |
| 20260831135017 | 69 | 45 | 7.0 | 13.0 | 0.00 | 0.00 | 0.00 | 70 | 1018.5 |
| 20260831134517 | 69 | 45 | 8.0 | 11.0 | 0.00 | 0.00 | 0.00 | 70 | 1018.6 |
| 20260831134038 | 69 | 45 | 7.0 | 12.0 | 0.00 | 0.00 | 0.00 | 70 | 1018.7 |
| 20260831133517 | 69 | 68 | 5.0 | 10.0 | 0.00 | 0.00 | 0.00 | 69 | 1018.7 |
| 20260831133017 | 69 | 68 | 5.0 | 9.0 | 0.00 | 0.00 | 0.00 | 69 | 1018.8 |
| 20260831132517 | 68 | 68 | 5.0 | 11.0 | 0.00 | 0.00 | 0.00 | 70 | 1018.6 |
| 20260831132017 | 68 | 45 | 7.0 | 12.0 | 0.00 | 0.00 | 0.00 | 71 | 1018.5 |
| 20260831131517 | 68 | 45 | 8.0 | 13.0 | 0.00 | 0.00 | 0.00 | 71 | 1018.4 |
| 20260831131017 | 68 | 45 | 7.0 | 11.0 | 0.00 | 0.00 | 0.00 | 71 | 1018.3 |
| 20260831130516 | 68 | 45 | 7.0 | 11.0 | 0.00 | 0.00 | 0.00 | 71 | 1018.4 |
| 20260831130017 | 68 | 45 | 7.0 | 12.0 | 0.00 | 0.00 | 0.00 | 71 | 1018.4 |
| 20260831125537 | 68 | 45 | 8.0 | 13.0 | 0.00 | 0.00 | 0.00 | 71 | 1018.3 |
| 20260831125017 | 68 | 45 | 8.0 | 12.0 | 0.00 | 0.00 | 0.00 | 71 | 1018.2 |
| 20260831124537 | 68 | 45 | 10.0 | 14.0 | 0.00 | 0.00 | 0.00 | 71 | 1018.2 |
| 20260831124016 | 67 | 45 | 10.0 | 14.0 | 0.00 | 0.00 | 0.00 | 72 | 1018.0 |
| 20260831123516 | 67 | 68 | 10.0 | 14.0 | 0.00 | 0.00 | 0.00 | 72 | 1018.0 |
| 20260831123017 | 67 | 68 | 11.0 | 16.0 | 0.00 | 0.00 | 0.00 | 72 | 1018.0 |
| 20260831122517 | 67 | 45 | 11.0 | 14.0 | 0.00 | 0.00 | 0.00 | 73 | 1017.9 |
| 20260831122016 | 67 | 68 | 10.0 | 15.0 | 0.00 | 0.00 | 0.00 | 72 | 1017.9 |
| 20260831121517 | 67 | 68 | 10.0 | 15.0 | 0.00 | 0.00 | 0.00 | 73 | 1017.9 |
| 20260831121058 | 67 | 45 | 12.0 | 16.0 | 0.00 | 0.00 | 0.00 | 73 | 1017.8 |
| 20260831120516 | 67 | 45 | 12.0 | 18.0 | 0.00 | 0.00 | 0.00 | 73 | 1017.7 |
| 20260831120016 | 67 | 45 | 13.0 | 16.0 | 0.00 | 0.00 | 0.00 | 73 | 1017.7 |
| 20260831115516 | 67 | 45 | 13.0 | 18.0 | 0.00 | 0.00 | 0.00 | 73 | 1017.7 |
| 20260831115016 | 67 | 45 | 12.0 | 17.0 | 0.00 | 0.00 | 0.00 | 73 | 1017.6 |
| 20260831114516 | 67 | 45 | 14.0 | 20.0 | 0.00 | 0.00 | 0.00 | 72 | 1017.6 |
| 20260831114016 | 67 | 45 | 15.0 | 21.0 | 0.00 | 0.00 | 0.00 | 73 | 1017.6 |
| 20260831113517 | 67 | 68 | 13.0 | 19.0 | 0.00 | 0.00 | 0.00 | 73 | 1017.7 |
| 20260831113037 | 67 | 45 | 15.0 | 21.0 | 0.00 | 0.00 | 0.00 | 72 | 1017.7 |
| 20260831112517 | 67 | 45 | 16.0 | 20.0 | 0.00 | 0.00 | 0.00 | 73 | 1017.6 |
| 20260831112037 | 67 | 45 | 14.0 | 19.0 | 0.00 | 0.00 | 0.00 | 73 | 1017.7 |
| 20260831111517 | 66 | 45 | 15.0 | 20.0 | 0.00 | 0.00 | 0.00 | 73 | 1017.7 |
| 20260831111016 | 66 | 45 | 18.0 | 21.0 | 0.00 | 0.00 | 0.00 | 73 | 1017.6 |
| 20260831110516 | 66 | 45 | 15.0 | 20.0 | 0.00 | 0.00 | 0.00 | 73 | 1017.6 |
| 20260831110017 | 66 | 45 | 14.0 | 20.0 | 0.00 | 0.00 | 0.00 | 74 | 1017.6 |
| 20260831105557 | 66 | 45 | 15.0 | 21.0 | 0.00 | 0.00 | 0.00 | 73 | 1017.7 |
| 20260831105016 | 66 | 45 | 15.0 | 21.0 | 0.00 | 0.00 | 0.00 | 73 | 1017.6 |
| 20260831104516 | 66 | 45 | 16.0 | 22.0 | 0.00 | 0.00 | 0.00 | 73 | 1017.4 |
| 20260831104016 | 66 | 45 | 14.0 | 19.0 | 0.00 | 0.00 | 0.00 | 73 | 1017.3 |
| 20260831103537 | 66 | 45 | 13.0 | 16.0 | 0.00 | 0.00 | 0.00 | 74 | 1017.3 |
| 20260831103017 | 66 | 45 | 13.0 | 18.0 | 0.00 | 0.00 | 0.00 | 74 | 1017.3 |
| 20260831102516 | 66 | 45 | 15.0 | 22.0 | 0.00 | 0.00 | 0.00 | 73 | 1017.2 |
| 20260831102016 | 66 | 45 | 16.0 | 21.0 | 0.00 | 0.00 | 0.00 | 73 | 1017.0 |
| 20260831101516 | 66 | 45 | 18.0 | 23.0 | 0.00 | 0.00 | 0.00 | 72 | 1017.0 |
| 20260831101016 | 66 | 45 | 18.0 | 22.0 | 0.00 | 0.00 | 0.00 | 72 | 1017.0 |
| 20260831100516 | 66 | 45 | 16.0 | 21.0 | 0.00 | 0.00 | 0.00 | 72 | 1016.9 |
| 20260831100016 | 66 | 45 | 15.0 | 19.0 | 0.00 | 0.00 | 0.00 | 72 | 1016.8 |
| 20260831095517 | 66 | 45 | 15.0 | 20.0 | 0.00 | 0.00 | 0.00 | 72 | 1016.8 |
| 20260831095037 | 66 | 45 | 16.0 | 22.0 | 0.00 | 0.00 | 0.00 | 71 | 1016.8 |
| 20260831094516 | 66 | 45 | 15.0 | 21.0 | 0.00 | 0.00 | 0.00 | 71 | 1016.6 |
| 20260831094017 | 66 | 45 | 15.0 | 21.0 | 0.00 | 0.00 | 0.00 | 71 | 1016.6 |
| 20260831093516 | 67 | 45 | 16.0 | 22.0 | 0.00 | 0.00 | 0.00 | 72 | 1016.6 |
| 20260831093036 | 67 | 45 | 16.0 | 23.0 | 0.00 | 0.00 | 0.00 | 71 | 1016.5 |
| 20260831092536 | 67 | 45 | 18.0 | 22.0 | 0.00 | 0.00 | 0.00 | 71 | 1016.4 |
| 20260831092037 | 67 | 45 | 16.0 | 21.0 | 0.00 | 0.00 | 0.00 | 71 | 1016.4 |
| 20260831091537 | 67 | 45 | 19.0 | 24.0 | 0.00 | 0.00 | 0.00 | 71 | 1016.4 |
| 20260831091016 | 67 | 45 | 18.0 | 24.0 | 0.00 | 0.00 | 0.00 | 71 | 1016.3 |
| 20260831090516 | 67 | 45 | 16.0 | 21.0 | 0.00 | 0.00 | 0.00 | 71 | 1016.3 |
| 20260831090016 | 67 | 45 | 16.0 | 27.0 | 0.00 | 0.00 | 0.00 | 70 | 1016.2 |
| 20260831085557 | 67 | 45 | 19.0 | 27.0 | 0.00 | 0.00 | 0.00 | 70 | 1016.2 |
| 20260831085016 | 67 | 45 | 16.0 | 23.0 | 0.00 | 0.00 | 0.00 | 71 | 1016.2 |
| 20260831084516 | 67 | 45 | 15.0 | 20.0 | 0.00 | 0.00 | 0.00 | 75 | 1016.3 |
| 20260831084016 | 67 | 45 | 14.0 | 18.0 | 0.00 | 0.00 | 0.00 | 76 | 1016.2 |
| 20260831083537 | 67 | 45 | 14.0 | 18.0 | 0.00 | 0.00 | 0.00 | 75 | 1016.2 |
| 20260831083016 | 67 | 45 | 14.0 | 19.0 | 0.00 | 0.00 | 0.00 | 76 | 1016.1 |
| 20260831082536 | 67 | 23 | 14.0 | 18.0 | 0.00 | 0.00 | 0.00 | 76 | 1016.0 |
| 20260831082016 | 67 | 45 | 13.0 | 16.0 | 0.00 | 0.00 | 0.00 | 76 | 1016.0 |
| 20260831081536 | 67 | 45 | 12.0 | 18.0 | 0.00 | 0.00 | 0.00 | 76 | 1015.9 |
| 20260831081016 | 67 | 45 | 12.0 | 16.0 | 0.00 | 0.00 | 0.00 | 75 | 1015.9 |
| 20260831080517 | 67 | 45 | 11.0 | 16.0 | 0.00 | 0.00 | 0.00 | 75 | 1015.8 |
| 20260831080017 | 67 | 45 | 11.0 | 14.0 | 0.00 | 0.00 | 0.00 | 75 | 1015.8 |
| 20260831075536 | 67 | 45 | 11.0 | 15.0 | 0.00 | 0.00 | 0.00 | 74 | 1015.7 |
| 20260831075057 | 67 | 45 | 11.0 | 15.0 | 0.00 | 0.00 | 0.00 | 74 | 1015.7 |
| 20260831074516 | 67 | 45 | 12.0 | 15.0 | 0.00 | 0.00 | 0.00 | 74 | 1015.7 |
| 20260831074017 | 67 | 45 | 10.0 | 14.0 | 0.00 | 0.00 | 0.00 | 74 | 1015.6 |
| 20260831073516 | 67 | 45 | 10.0 | 14.0 | 0.00 | 0.00 | 0.00 | 75 | 1015.6 |
| 20260831073036 | 67 | 45 | 10.0 | 13.0 | 0.00 | 0.00 | 0.00 | 75 | 1015.6 |
| 20260831072516 | 67 | 45 | 10.0 | 14.0 | 0.00 | 0.00 | 0.00 | 76 | 1015.7 |
| 20260831072016 | 67 | 45 | 9.0 | 13.0 | 0.00 | 0.00 | 0.00 | 77 | 1015.6 |
| 20260831071516 | 67 | 45 | 9.0 | 12.0 | 0.00 | 0.00 | 0.00 | 76 | 1015.7 |
| 20260831071016 | 67 | 45 | 9.0 | 13.0 | 0.00 | 0.00 | 0.00 | 77 | 1015.6 |
| 20260831070516 | 67 | 45 | 8.0 | 11.0 | 0.00 | 0.00 | 0.00 | 77 | 1015.6 |
| 20260831070016 | 67 | 45 | 7.0 | 10.0 | 0.00 | 0.00 | 0.00 | 77 | 1015.5 |
| 20260831065516 | 67 | 45 | 8.0 | 12.0 | 0.00 | 0.00 | 0.00 | 77 | 1015.5 |
| 20260831065016 | 67 | 45 | 9.0 | 13.0 | 0.00 | 0.00 | 0.00 | 77 | 1015.4 |
| 20260831064517 | 67 | 45 | 10.0 | 14.0 | 0.00 | 0.00 | 0.00 | 77 | 1015.5 |
| 20260831064016 | 68 | 45 | 10.0 | 14.0 | 0.00 | 0.00 | 0.00 | 78 | 1015.4 |
| 20260831063516 | 68 | 45 | 10.0 | 13.0 | 0.00 | 0.00 | 0.00 | 78 | 1015.3 |
| 20260831063016 | 68 | 45 | 10.0 | 14.0 | 0.00 | 0.00 | 0.00 | 78 | 1015.3 |
| 20260831062516 | 68 | 45 | 11.0 | 14.0 | 0.00 | 0.00 | 0.00 | 78 | 1015.3 |
| 20260831062016 | 68 | 45 | 11.0 | 14.0 | 0.00 | 0.00 | 0.00 | 78 | 1015.2 |
| 20260831061536 | 68 | 45 | 10.0 | 14.0 | 0.00 | 0.00 | 0.00 | 78 | 1015.2 |
| 20260831061036 | 68 | 45 | 11.0 | 15.0 | 0.00 | 0.00 | 0.00 | 79 | 1015.2 |
| 20260831060516 | 68 | 45 | 10.0 | 16.0 | 0.00 | 0.00 | 0.00 | 79 | 1015.2 |
| 20260831060017 | 68 | 45 | 10.0 | 13.0 | 0.00 | 0.00 | 0.00 | 80 | 1015.1 |
| 20260831055536 | 68 | 45 | 10.0 | 13.0 | 0.00 | 0.00 | 0.00 | 80 | 1015.1 |
| 20260831055036 | 68 | 45 | 11.0 | 14.0 | 0.00 | 0.00 | 0.00 | 80 | 1015.0 |
| 20260831054516 | 68 | 23 | 11.0 | 14.0 | 0.00 | 0.00 | 0.00 | 81 | 1015.0 |
| 20260831054016 | 68 | 23 | 9.0 | 12.0 | 0.00 | 0.00 | 0.00 | 82 | 1014.9 |
| 20260831053515 | 68 | 23 | 10.0 | 13.0 | 0.00 | 0.00 | 0.00 | 82 | 1014.8 |
| 20260831053016 | 69 | 23 | 10.0 | 13.0 | 0.00 | 0.00 | 0.00 | 82 | 1014.7 |
| 20260831052516 | 69 | 23 | 11.0 | 13.0 | 0.00 | 0.00 | 0.00 | 82 | 1014.8 |
| 20260831052016 | 69 | 23 | 11.0 | 13.0 | 0.00 | 0.00 | 0.00 | 82 | 1014.8 |
| 20260831051516 | 69 | 23 | 12.0 | 16.0 | 0.00 | 0.00 | 0.00 | 82 | 1014.8 |
| 20260831051016 | 69 | 23 | 12.0 | 16.0 | 0.00 | 0.00 | 0.00 | 82 | 1014.8 |
| 20260831050516 | 69 | 23 | 15.0 | 19.0 | 0.00 | 0.00 | 0.00 | 82 | 1014.9 |
| 20260831050036 | 69 | 23 | 14.0 | 19.0 | 0.00 | 0.00 | 0.00 | 81 | 1014.8 |
| 20260831045516 | 69 | 23 | 12.0 | 17.0 | 0.00 | 0.00 | 0.00 | 81 | 1014.7 |
| 20260831045016 | 69 | 338 | 10.0 | 13.0 | 0.00 | 0.00 | 0.00 | 81 | 1014.6 |
| 20260831044516 | 69 | 338 | 9.0 | 11.0 | 0.00 | 0.00 | 0.00 | 80 | 1014.5 |
| 20260831044016 | 69 | 338 | 9.0 | 11.0 | 0.00 | 0.00 | 0.00 | 80 | 1014.5 |
| 20260831043516 | 69 | 338 | 9.0 | 11.0 | 0.00 | 0.00 | 0.00 | 80 | 1014.4 |
| 20260831043016 | 70 | 338 | 10.0 | 13.0 | 0.00 | 0.00 | 0.00 | 79 | 1014.4 |
| 20260831042516 | 70 | 338 | 10.0 | 12.0 | 0.00 | 0.00 | 0.00 | 79 | 1014.3 |
| 20260831042016 | 70 | 338 | 10.0 | 12.0 | 0.00 | 0.00 | 0.00 | 79 | 1014.3 |
| 20260831041516 | 70 | 338 | 11.0 | 13.0 | 0.00 | 0.00 | 0.00 | 79 | 1014.2 |
| 20260831041016 | 70 | 338 | 12.0 | 14.0 | 0.00 | 0.00 | 0.00 | 79 | 1014.2 |
| 20260831040516 | 71 | 338 | 13.0 | 16.0 | 0.00 | 0.00 | 0.00 | 78 | 1014.2 |
| 20260831040016 | 71 | 338 | 12.0 | 15.0 | 0.00 | 0.00 | 0.00 | 77 | 1014.2 |
| 20260831035536 | 71 | 338 | 12.0 | 17.0 | 0.00 | 0.00 | 0.00 | 76 | 1014.2 |
| 20260831035017 | 72 | 338 | 12.0 | 17.0 | 0.00 | 0.00 | 0.00 | 75 | 1014.2 |
| 20260831034516 | 72 | 338 | 13.0 | 16.0 | 0.00 | 0.00 | 0.00 | 75 | 1014.2 |
| 20260831034036 | 73 | 338 | 15.0 | 20.0 | 0.00 | 0.00 | 0.00 | 74 | 1014.2 |
| 20260831033516 | 74 | 338 | 15.0 | 21.0 | 0.00 | 0.00 | 0.00 | 72 | 1014.2 |
| 20260831033037 | 74 | 338 | 13.0 | 20.0 | 0.00 | 0.00 | 0.00 | 72 | 1014.1 |
| 20260831032516 | 74 | 293 | 10.0 | 19.0 | 0.00 | 0.00 | 0.00 | 73 | 1014.1 |
| 20260831032016 | 74 | 293 | 9.0 | 14.0 | 0.00 | 0.00 | 0.00 | 73 | 1014.1 |
| 20260831031516 | 73 | 293 | 9.0 | 13.0 | 0.00 | 0.00 | 0.00 | 73 | 1014.1 |
| 20260831031016 | 73 | 270 | 8.0 | 14.0 | 0.00 | 0.00 | 0.00 | 73 | 1014.1 |
| 20260831030516 | 73 | 270 | 8.0 | 11.0 | 0.00 | 0.00 | 0.00 | 74 | 1014.1 |
| 20260831030016 | 73 | 293 | 8.0 | 12.0 | 0.00 | 0.00 | 0.00 | 75 | 1014.2 |
| 20260831025516 | 72 | 270 | 9.0 | 13.0 | 0.00 | 0.00 | 0.00 | 75 | 1014.2 |
| 20260831025016 | 72 | 270 | 8.0 | 12.0 | 0.00 | 0.00 | 0.00 | 77 | 1014.1 |
| 20260831024517 | 71 | 270 | 7.0 | 11.0 | 0.00 | 0.00 | 0.00 | 77 | 1014.2 |
| 20260831024016 | 71 | 270 | 7.0 | 10.0 | 0.00 | 0.00 | 0.00 | 77 | 1014.2 |
| 20260831023516 | 71 | 248 | 8.0 | 10.0 | 0.00 | 0.00 | 0.00 | 76 | 1014.1 |
| 20260831023016 | 72 | 248 | 8.0 | 9.0 | 0.00 | 0.00 | 0.00 | 76 | 1014.0 |
| 20260831022517 | 72 | 270 | 9.0 | 12.0 | 0.00 | 0.00 | 0.00 | 75 | 1014.0 |
| 20260831022016 | 72 | 270 | 8.0 | 11.0 | 0.00 | 0.00 | 0.00 | 76 | 1014.1 |
| 20260831021516 | 71 | 270 | 9.0 | 12.0 | 0.00 | 0.00 | 0.00 | 76 | 1014.1 |
| 20260831021016 | 71 | 270 | 9.0 | 14.0 | 0.00 | 0.00 | 0.00 | 77 | 1014.1 |
| 20260831020516 | 70 | 248 | 8.0 | 11.0 | 0.00 | 0.00 | 0.00 | 77 | 1014.1 |
| 20260831020016 | 71 | 248 | 8.0 | 10.0 | 0.00 | 0.00 | 0.00 | 76 | 1014.1 |
| 20260831015516 | 71 | 248 | 8.0 | 10.0 | 0.00 | 0.00 | 0.00 | 76 | 1014.1 |
| 20260831015016 | 71 | 248 | 8.0 | 10.0 | 0.00 | 0.00 | 0.00 | 75 | 1014.0 |
| 20260831014516 | 72 | 248 | 8.0 | 9.0 | 0.00 | 0.00 | 0.00 | 74 | 1014.1 |
| 20260831014016 | 72 | 248 | 7.0 | 9.0 | 0.00 | 0.00 | 0.00 | 73 | 1014.0 |
| 20260831013516 | 72 | 248 | 8.0 | 11.0 | 0.00 | 0.00 | 0.00 | 73 | 1013.9 |
| 20260831013016 | 73 | 248 | 9.0 | 11.0 | 0.00 | 0.00 | 0.00 | 73 | 1013.8 |
| 20260831012556 | 73 | 248 | 9.0 | 12.0 | 0.00 | 0.00 | 0.00 | 73 | 1013.7 |
| 20260831012016 | 72 | 270 | 11.0 | 14.0 | 0.00 | 0.00 | 0.00 | 73 | 1013.7 |
| 20260831011516 | 72 | 248 | 10.0 | 15.0 | 0.00 | 0.00 | 0.00 | 74 | 1013.6 |
| 20260831011016 | 71 | 248 | 10.0 | 15.0 | 0.00 | 0.00 | 0.00 | 74 | 1013.6 |
| 20260831010516 | 71 | 248 | 9.0 | 13.0 | 0.00 | 0.00 | 0.00 | 74 | 1013.6 |
| 20260831010016 | 72 | 248 | 10.0 | 13.0 | 0.00 | 0.00 | 0.00 | 74 | 1013.5 |
| 20260831005536 | 72 | 248 | 10.0 | 14.0 | 0.00 | 0.00 | 0.00 | 73 | 1013.6 |
| 20260831005016 | 72 | 248 | 11.0 | 14.0 | 0.00 | 0.00 | 0.00 | 73 | 1013.5 |
| 20260831004517 | 72 | 248 | 11.0 | 14.0 | 0.00 | 0.00 | 0.00 | 73 | 1013.5 |
| 20260831004037 | 72 | 248 | 12.0 | 16.0 | 0.00 | 0.00 | 0.00 | 72 | 1013.5 |
| 20260831003557 | 72 | 248 | 12.0 | 16.0 | 0.00 | 0.00 | 0.00 | 73 | 1013.4 |
| 20260831003036 | 72 | 248 | 11.0 | 15.0 | 0.00 | 0.00 | 0.00 | 73 | 1013.4 |
| 20260831002516 | 72 | 248 | 11.0 | 16.0 | 0.00 | 0.00 | 0.00 | 74 | 1013.4 |
| 20260831002016 | 71 | 248 | 10.0 | 14.0 | 0.00 | 0.00 | 0.00 | 74 | 1013.4 |
| 20260831001536 | 71 | 248 | 11.0 | 15.0 | 0.00 | 0.00 | 0.00 | 74 | 1013.2 |
| 20260831001036 | 71 | 248 | 10.0 | 13.0 | 0.00 | 0.00 | 0.00 | 74 | 1013.3 |
| 20260831000516 | 71 | 248 | 10.0 | 13.0 | 0.00 | 0.00 | 0.00 | 74 | 1013.1 |
| 20260831000016 | 71 | 248 | 10.0 | 14.0 | 0.00 | 0.00 | 0.00 | 74 | 1013.0 |
| 20260830235516 | 71 | 248 | 11.0 | 15.0 | 0.00 | 0.00 | 0.00 | 73 | 1013.0 |
| 20260830235016 | 72 | 248 | 11.0 | 14.0 | 0.00 | 0.00 | 0.00 | 73 | 1012.9 |
| 20260830234536 | 72 | 248 | 11.0 | 15.0 | 0.00 | 0.00 | 0.00 | 73 | 1012.9 |
| 20260830234016 | 72 | 248 | 10.0 | 14.0 | 0.00 | 0.00 | 0.00 | 72 | 1012.9 |
| 20260830233516 | 72 | 248 | 9.0 | 14.0 | 0.00 | 0.00 | 0.00 | 71 | 1012.9 |
| 20260830233016 | 72 | 248 | 11.0 | 16.0 | 0.00 | 0.00 | 0.00 | 71 | 1012.9 |
| 20260830232516 | 72 | 248 | 11.0 | 15.0 | 0.00 | 0.00 | 0.00 | 71 | 1012.9 |
| 20260830232016 | 72 | 248 | 11.0 | 14.0 | 0.00 | 0.00 | 0.00 | 72 | 1012.9 |
| 20260830231517 | 72 | 248 | 10.0 | 15.0 | 0.00 | 0.00 | 0.00 | 72 | 1013.0 |
| 20260830231016 | 72 | 248 | 11.0 | 15.0 | 0.00 | 0.00 | 0.00 | 72 | 1012.9 |
| 20260830230516 | 72 | 248 | 10.0 | 12.0 | 0.00 | 0.00 | 0.00 | 71 | 1013.0 |
| 20260830230016 | 72 | 248 | 9.0 | 14.0 | 0.00 | 0.00 | 0.00 | 70 | 1013.0 |
| 20260830225516 | 72 | 248 | 10.0 | 13.0 | 0.00 | 0.00 | 0.00 | 70 | 1013.1 |
| 20260830225016 | 72 | 248 | 10.0 | 13.0 | 0.00 | 0.00 | 0.00 | 70 | 1013.2 |
| 20260830224516 | 73 | 248 | 11.0 | 15.0 | 0.00 | 0.00 | 0.00 | 70 | 1013.3 |
| 20260830224016 | 73 | 248 | 12.0 | 18.0 | 0.00 | 0.00 | 0.00 | 70 | 1013.3 |
| 20260830223516 | 72 | 248 | 12.0 | 15.0 | 0.00 | 0.00 | 0.00 | 71 | 1013.2 |
| 20260830223016 | 73 | 248 | 12.0 | 16.0 | 0.00 | 0.00 | 0.00 | 71 | 1013.2 |
| 20260830222516 | 72 | 248 | 12.0 | 16.0 | 0.00 | 0.00 | 0.00 | 71 | 1013.3 |
| 20260830222016 | 72 | 248 | 12.0 | 15.0 | 0.00 | 0.00 | 0.00 | 71 | 1013.3 |
| 20260830221515 | 73 | 248 | 12.0 | 16.0 | 0.00 | 0.00 | 0.00 | 71 | 1013.3 |
| 20260830221015 | 73 | 248 | 12.0 | 15.0 | 0.00 | 0.00 | 0.00 | 70 | 1013.3 |
| 20260830220516 | 73 | 248 | 11.0 | 15.0 | 0.00 | 0.00 | 0.00 | 70 | 1013.4 |
| 20260830220016 | 73 | 225 | 11.0 | 14.0 | 0.00 | 0.00 | 0.00 | 70 | 1013.5 |
| 20260830215516 | 74 | 248 | 10.0 | 14.0 | 0.00 | 0.00 | 0.00 | 69 | 1013.5 |
| 20260830215036 | 74 | 248 | 11.0 | 16.0 | 0.00 | 0.00 | 0.00 | 69 | 1013.6 |
| 20260830214516 | 73 | 248 | 11.0 | 15.0 | 0.00 | 0.00 | 0.00 | 70 | 1013.7 |
| 20260830214016 | 74 | 248 | 10.0 | 14.0 | 0.00 | 0.00 | 0.00 | 69 | 1013.8 |
| 20260830213515 | 75 | 248 | 9.0 | 13.0 | 0.00 | 0.00 | 0.00 | 67 | 1013.8 |
| 20260830213016 | 76 | 248 | 9.0 | 13.0 | 0.00 | 0.00 | 0.00 | 65 | 1013.6 |
| 20260830212515 | 77 | 248 | 10.0 | 14.0 | 0.00 | 0.00 | 0.00 | 61 | 1013.7 |
| 20260830212016 | 77 | 248 | 10.0 | 14.0 | 0.00 | 0.00 | 0.00 | 60 | 1013.6 |
| 20260830211515 | 77 | 248 | 11.0 | 15.0 | 0.00 | 0.00 | 0.00 | 58 | 1013.7 |
| 20260830211015 | 77 | 248 | 12.0 | 16.0 | 0.00 | 0.00 | 0.00 | 60 | 1013.7 |
| 20260830210516 | 78 | 248 | 9.0 | 15.0 | 0.00 | 0.00 | 0.00 | 60 | 1013.7 |
| 20260830210036 | 79 | 248 | 8.0 | 12.0 | 0.00 | 0.00 | 0.00 | 54 | 1013.7 |
| 20260830205536 | 80 | 248 | 9.0 | 14.0 | 0.00 | 0.00 | 0.00 | 53 | 1013.7 |
| 20260830205036 | 80 | 270 | 11.0 | 17.0 | 0.00 | 0.00 | 0.00 | 49 | 1013.8 |
| 20260830204515 | 80 | 270 | 12.0 | 18.0 | 0.00 | 0.00 | 0.00 | 48 | 1013.7 |
| 20260830204016 | 80 | 270 | 11.0 | 17.0 | 0.00 | 0.00 | 0.00 | 48 | 1013.7 |
| 20260830203515 | 79 | 270 | 12.0 | 18.0 | 0.00 | 0.00 | 0.00 | 49 | 1013.7 |
| 20260830203016 | 79 | 270 | 14.0 | 19.0 | 0.00 | 0.00 | 0.00 | 50 | 1013.8 |
| 20260830202516 | 79 | 270 | 13.0 | 18.0 | 0.00 | 0.00 | 0.00 | 51 | 1013.8 |
| 20260830202015 | 78 | 248 | 12.0 | 17.0 | 0.00 | 0.00 | 0.00 | 52 | 1013.8 |
| 20260830201516 | 79 | 248 | 9.0 | 14.0 | 0.00 | 0.00 | 0.00 | 55 | 1013.9 |
| 20260830201035 | 80 | 248 | 9.0 | 15.0 | 0.00 | 0.00 | 0.00 | 54 | 1013.9 |
| 20260830200515 | 81 | 270 | 8.0 | 12.0 | 0.00 | 0.00 | 0.00 | 55 | 1014.0 |
| 20260830200016 | 81 | 270 | 8.0 | 12.0 | 0.00 | 0.00 | 0.00 | 49 | 1014.0 |
| 20260830195516 | 82 | 293 | 10.0 | 16.0 | 0.00 | 0.00 | 0.00 | 47 | 1014.1 |
| 20260830195015 | 82 | 293 | 11.0 | 15.0 | 0.00 | 0.00 | 0.00 | 47 | 1014.2 |
| 20260830194515 | 82 | 293 | 12.0 | 18.0 | 0.00 | 0.00 | 0.00 | 46 | 1014.2 |
| 20260830194015 | 83 | 293 | 12.0 | 19.0 | 0.00 | 0.00 | 0.00 | 45 | 1014.3 |
| 20260830193536 | 83 | 270 | 10.0 | 15.0 | 0.00 | 0.00 | 0.00 | 45 | 1014.3 |
| 20260830193015 | 84 | 293 | 10.0 | 14.0 | 0.00 | 0.00 | 0.00 | 46 | 1014.5 |
| 20260830192515 | 84 | 293 | 11.0 | 20.0 | 0.00 | 0.00 | 0.00 | 45 | 1014.4 |
| 20260830192056 | 84 | 293 | 10.0 | 16.0 | 0.00 | 0.00 | 0.00 | 45 | 1014.5 |
| 20260830191515 | 84 | 293 | 9.0 | 15.0 | 0.00 | 0.00 | 0.00 | 46 | 1014.6 |
| 20260830191016 | 83 | 293 | 12.0 | 17.0 | 0.00 | 0.00 | 0.00 | 46 | 1014.7 |
| 20260830190515 | 83 | 293 | 11.0 | 15.0 | 0.00 | 0.00 | 0.00 | 47 | 1014.8 |
| 20260830190015 | 83 | 315 | 11.0 | 19.0 | 0.00 | 0.00 | 0.00 | 47 | 1014.9 |
| 20260830185515 | 83 | 293 | 11.0 | 18.0 | 0.00 | 0.00 | 0.00 | 48 | 1014.9 |
| 20260830185015 | 82 | 270 | 13.0 | 20.0 | 0.00 | 0.00 | 0.00 | 48 | 1015.1 |
| 20260830184515 | 82 | 293 | 13.0 | 19.0 | 0.00 | 0.00 | 0.00 | 49 | 1015.1 |
| 20260830184016 | 82 | 293 | 12.0 | 18.0 | 0.00 | 0.00 | 0.00 | 49 | 1015.2 |
| 20260830183516 | 82 | 293 | 11.0 | 16.0 | 0.00 | 0.00 | 0.00 | 50 | 1015.2 |
| 20260830183015 | 81 | 293 | 14.0 | 21.0 | 0.00 | 0.00 | 0.00 | 49 | 1015.2 |
| 20260830182538 | 81 | 293 | 12.0 | 19.0 | 0.00 | 0.00 | 0.00 | 50 | 1015.2 |
| 20260830182017 | 81 | 270 | 11.0 | 16.0 | 0.00 | 0.00 | 0.00 | 52 | 1015.2 |
| 20260830181517 | 81 | 270 | 11.0 | 17.0 | 0.00 | 0.00 | 0.00 | 51 | 1015.3 |
| 20260830181017 | 81 | 270 | 11.0 | 17.0 | 0.00 | 0.00 | 0.00 | 51 | 1015.2 |
| 20260830180538 | 81 | 270 | 12.0 | 19.0 | 0.00 | 0.00 | 0.00 | 51 | 1015.2 |
| 20260830180017 | 81 | 293 | 12.0 | 20.0 | 0.00 | 0.00 | 0.00 | 51 | 1015.3 |
| 20260830175517 | 81 | 270 | 10.0 | 15.0 | 0.00 | 0.00 | 0.00 | 53 | 1015.4 |
| 20260830175017 | 81 | 270 | 12.0 | 17.0 | 0.00 | 0.00 | 0.00 | 52 | 1015.5 |
| 20260830174517 | 81 | 270 | 12.0 | 16.0 | 0.00 | 0.00 | 0.00 | 54 | 1015.4 |
| 20260830174017 | 81 | 270 | 12.0 | 19.0 | 0.00 | 0.00 | 0.00 | 56 | 1015.4 |
| 20260830173517 | 80 | 270 | 12.0 | 18.0 | 0.00 | 0.00 | 0.00 | 56 | 1015.5 |
| 20260830173017 | 79 | 270 | 11.0 | 17.0 | 0.00 | 0.00 | 0.00 | 61 | 1015.5 |
| 20260830172517 | 76 | 248 | 6.0 | 12.0 | 0.00 | 0.00 | 0.00 | 67 | 1015.6 |
| 20260830172018 | 76 | 248 | 7.0 | 12.0 | 0.00 | 0.00 | 0.00 | 68 | 1015.7 |
| 20260830171517 | 76 | 248 | 8.0 | 12.0 | 0.00 | 0.00 | 0.00 | 68 | 1015.7 |
| 20260830171017 | 76 | 248 | 9.0 | 13.0 | 0.00 | 0.00 | 0.00 | 68 | 1015.6 |
| 20260830170517 | 75 | 225 | 10.0 | 15.0 | 0.00 | 0.00 | 0.00 | 69 | 1015.6 |
| 20260830170018 | 75 | 225 | 10.0 | 14.0 | 0.00 | 0.00 | 0.00 | 71 | 1015.7 |
| 20260830165517 | 74 | 225 | 10.0 | 14.0 | 0.00 | 0.00 | 0.00 | 72 | 1015.7 |
| 20260830165017 | 74 | 225 | 10.0 | 14.0 | 0.00 | 0.00 | 0.00 | 72 | 1015.7 |
| 20260830164518 | 74 | 225 | 9.0 | 14.0 | 0.00 | 0.00 | 0.00 | 72 | 1015.7 |
| 20260830164017 | 74 | 225 | 8.0 | 13.0 | 0.00 | 0.00 | 0.00 | 72 | 1015.7 |
| 20260830163518 | 74 | 225 | 10.0 | 14.0 | 0.00 | 0.00 | 0.00 | 70 | 1015.7 |
| 20260830163018 | 74 | 225 | 8.0 | 15.0 | 0.00 | 0.00 | 0.00 | 70 | 1015.8 |
| 20260830162517 | 74 | 225 | 9.0 | 14.0 | 0.00 | 0.00 | 0.00 | 69 | 1015.7 |
| 20260830162017 | 75 | 225 | 8.0 | 15.0 | 0.00 | 0.00 | 0.00 | 69 | 1015.7 |
| 20260830161517 | 75 | 225 | 8.0 | 14.0 | 0.00 | 0.00 | 0.00 | 69 | 1015.9 |
| 20260830161017 | 75 | 225 | 11.0 | 17.0 | 0.00 | 0.00 | 0.00 | 69 | 1015.9 |
| 20260830160517 | 74 | 225 | 9.0 | 16.0 | 0.00 | 0.00 | 0.00 | 70 | 1016.0 |
| 20260830160018 | 74 | 225 | 9.0 | 16.0 | 0.00 | 0.00 | 0.00 | 70 | 1016.0 |
| 20260830155517 | 75 | 225 | 10.0 | 15.0 | 0.00 | 0.00 | 0.00 | 71 | 1016.1 |
| 20260830155017 | 74 | 225 | 12.0 | 17.0 | 0.00 | 0.00 | 0.00 | 72 | 1016.1 |
| 20260830154517 | 74 | 225 | 12.0 | 16.0 | 0.00 | 0.00 | 0.00 | 73 | 1016.1 |
| 20260830154017 | 73 | 225 | 9.0 | 15.0 | 0.00 | 0.00 | 0.00 | 73 | 1016.1 |
| 20260830153517 | 73 | 225 | 12.0 | 16.0 | 0.00 | 0.00 | 0.00 | 72 | 1016.2 |
| 20260830153038 | 73 | 225 | 11.0 | 16.0 | 0.00 | 0.00 | 0.00 | 72 | 1016.3 |
| 20260830152517 | 73 | 225 | 14.0 | 18.0 | 0.00 | 0.00 | 0.00 | 71 | 1016.4 |
| 20260830152018 | 73 | 225 | 13.0 | 18.0 | 0.00 | 0.00 | 0.00 | 72 | 1016.4 |
| 20260830151538 | 73 | 225 | 13.0 | 17.0 | 0.00 | 0.00 | 0.00 | 73 | 1016.5 |
| 20260830151019 | 72 | 225 | 10.0 | 18.0 | 0.00 | 0.00 | 0.00 | 73 | 1016.5 |